Location: El Gavilán
(32.5178°N, 116.7422°W)
Time: 06:59:35
(UTC+00:00)

BlueWalker 3 - Pass Details

Date: 06 August 2024
Orbit: 475 x 487 km, 53.2° (Epoch: 18 September)

Event Time Altitude Azimuth Distance (km) Brightness Sun altitude
Exits shadow 10:17:29 22° 36° (NE) 1,101 4.3 -30.0°
Drops below altitude 10° 10:18:58 10° 40° (NE) 1,679 5.5 -29.8°
Enters shadow 11:16:00 -68° 226° (SW) 12,309 8.9 -21.0°
